Sign-in with your pilot id or email, or register

ICAO: EGGW Name / Country: London/Luton / United Kingdom
Latitude: 51.8747 Longitude: -0.368333
Total Arrivals:
Strict Standards: Non-static method AirportData::getarrflights() should not be called statically, assuming $this from incompatible context in /var/www/customers/vh-7192/web/home/phpvms/core/templates/airport_info.tpl on line 18
1
Total Departures:
Strict Standards: Non-static method AirportData::getdeptflights() should not be called statically, assuming $this from incompatible context in /var/www/customers/vh-7192/web/home/phpvms/core/templates/airport_info.tpl on line 21
1
Latest Arrival: MTA209K (LHBP-EGGW) Tibor Berces Latest Departure: MTA210C (EGGW-LHBP) Tibor Berces
Metar: EGGW 231250Z AUTO 29011KT 9999 BKN010 BKN017 03/01 Q0994
More info

Charts for EGGW


NOTAM


Warning: file_get_contents(http://api.vateud.net/notams/EGGW.json): failed to open stream: HTTP request failed! HTTP/1.1 404 Not Found in /var/www/customers/vh-7192/web/home/phpvms/core/common/NOTAMSData.class.php on line 18

Warning: Invalid argument supplied for foreach() in /var/www/customers/vh-7192/web/home/phpvms/core/common/NOTAMSData.class.php on line 22

London/Luton